CAPE
0 0 0 0 0 0 0 0 0 0 0 0 0 0 0 0 0 0 0 0 0 0
0 0 0 0 0 0 0 0 0 0 0 0 0 0 0 0 0 0 0 0 0 0
0 0 0 0 0 0 0 0 0 0 0 0 0 0 0 0 0 0 0 0 0 0
0 0 0 0 0 0 0 0 0 0 0 0 0 0 0 0 0 0 0 0 0 0
0 0 0 0 0 0 0 0 0 0 0 0 0 0 0 0 0 0 0 0 0 0
0 0 0 0 0 0 0 0 0 0 0 0 0 0 0 0 0 0 0 0 0 0
0 0 0 0 0 0 0 0 0 0 0 0 0 0 0 0 0 0 0 0 0 0
0 0 0 0 0 0 0 0 0 0 0 0 0 0 0 0 0 0 0 0 0 0
0 0 0 0 0 0 0 0 0 0 0 0 0 0 0 0 0 0 0 0 0 0
0 0 0 0 0 0 0 0 0 0 0 0 0 0 0 0 0 0 0 0 0 0
0 0 0 0 0 0 0 0 1 0 0 0 0 0 0 0 0 1 0 0 0 0
0 0 0 0 0 0 0 0 0 0 0 0 0 0 0 0 0 0 0 0 0 1
0 0 0 0 0 0 0 0 0 0 0 0 0 1 1 1 0 1 0 0 0 0
0 0 0 1 0 0 1 0 1 1 0 0 0 0 0 0 0 0 1 0 0 0
CIN
-0 -0 -0 -0 -0 -0 -0 -0 -0 -0 -0 -0 -0 -0 -0 -0 -0 -0 -0 -0 -0 -0
-0 -0 -0 -0 -0 -0 -0 -0 -0 -0 -0 -0 -0 -0 -0 -0 -0 -0 -0 -0 -0 -0
-0 -0 -0 -0 -0 -0 -0 -0 -0 -0 -0 -0 -0 -0 -0 -0 -0 -0 -0 -0 -0 -0
-0 -0 -0 -0 -0 -0 -0 -0 -0 -0 -0 -0 -0 -0 -0 -0 -0 -0 -0 -0 -0 -0
-0 -0 -0 -0 -0 -0 -0 -0 -0 -0 -0 -0 -0 -0 -0 -0 -0 -0 -0 -0 -0 -51
-0 -0 -0 -0 -0 -0 -0 -0 -0 -0 -0 -0 -0 -0 -0 -0 -0 -0 -0 -0 -0 -0
-0 -0 -0 -0 -0 -0 -0 -0 -0 -0 -0 -0 -0 -0 -0 -0 -0 -0 -0 -0 -0 -0
-0 -0 -0 -0 -0 -0 -0 -0 -0 -0 -0 -0 -0 -0 -0 -0 -0 -0 -0 -0 -0 -0
-0 -0 -0 -0 -0 -0 -0 -0 -0 -0 -0 -0 -0 -0 -0 -0 -0 -0 -0 -0 -0 -0
-0 -0 -0 -0 -0 -0 -0 -0 -0 -0 -0 -0 -0 -1 -0 -0 -0 -0 -0 -0 -0 -0
-0 -0 -0 -0 -0 -1 -1 -0 -0 -0 -0 -0 -0 -0 -0 -1 -0 -0 -0 -0 -0 -0
-0 -0 -0 -0 -0 -1 -0 -0 -0 -0 -0 -0 -0 -3 -2 -0 -2 -0 -0 -1 -1 -0
-0 -1 -0 -0 -0 -0 -0 -0 -0 -0 -0 -0 -0 -6 -1 -1 -1 -0 -0 -0 -0 -0
-0 -0 -0 -0 -0 -0 -0 -0 -0 -0 -0 -0 -0 -2 -0 -0 -1 -0 -0 -0 -0 -0
Wind_Speed
18 20 22 25 28 30 32 34 35 38 38 39 39 38 38 39 39 38 38 38 37 37
20 22 25 27 28 31 34 36 38 38 39 39 39 40 40 40 40 39 39 38 36 33
21 24 26 29 32 34 36 38 40 40 40 41 40 40 41 41 40 40 38 35 34 33
23 25 28 31 33 35 37 39 40 40 40 40 40 41 41 41 40 39 37 36 35 36
24 27 30 33 34 36 40 40 39 39 40 41 41 41 41 41 38 37 37 37 37 36
26 29 32 34 36 39 40 39 38 40 42 42 42 41 39 37 36 36 35 35 34 33
28 32 33 35 38 39 39 39 39 39 39 39 39 37 35 35 35 34 33 33 33 34
29 32 34 36 38 38 38 37 37 37 36 35 35 33 34 33 33 34 32 31 32 33
31 33 35 36 37 37 37 36 35 34 33 34 32 32 32 34 33 30 29 31 29 26
32 33 34 35 35 35 35 33 32 32 32 31 30 33 36 36 32 29 28 29 29 31
31 32 33 33 33 33 32 32 32 32 30 30 32 35 36 34 31 30 30 31 34 35
30 31 32 32 32 32 32 32 32 30 30 33 33 34 35 34 34 32 34 34 36 37
28 29 30 31 32 32 31 32 31 32 31 33 35 35 36 36 35 35 35 36 37 36
27 28 28 30 31 32 32 33 33 33 33 34 35 37 39 39 37 37 36 38 39 37
Wind_Direction
341 339 338 336 334 332 332 332 333 330 329 328 328 328 327 326 325 325 325 323 322 322
337 336 336 335 335 334 333 332 331 330 329 328 328 327 326 324 323 323 322 321 321 320
336 336 336 335 334 333 333 332 332 331 331 331 331 329 327 325 324 322 323 322 319 317
333 334 335 335 335 336 336 335 335 335 335 333 332 331 330 329 328 327 326 324 320 315
333 335 335 335 336 336 334 334 334 334 333 332 331 331 331 330 331 329 328 326 323 319
332 333 334 335 334 334 334 334 334 334 333 333 333 333 334 334 334 333 331 329 328 326
330 331 334 334 334 334 335 336 336 336 337 338 339 340 342 343 341 339 337 335 332 330
330 333 334 334 334 336 337 338 339 340 341 343 345 347 347 346 345 343 342 340 337 334
331 332 334 334 336 337 338 339 341 342 344 346 350 350 348 346 346 347 345 342 340 339
331 332 334 336 337 338 339 342 343 345 347 350 351 349 347 347 347 345 343 340 339 336
330 332 335 336 337 339 341 343 344 346 348 348 346 345 346 348 348 345 342 339 336 333
331 332 334 335 337 339 339 341 344 347 347 344 343 343 344 345 344 343 341 340 337 334
330 331 332 334 336 338 340 341 345 343 345 343 341 343 342 342 342 340 339 339 338 337
330 331 333 334 337 339 341 342 343 343 344 342 341 341 341 341 342 340 340 338 338 339